Weather in Shchedrino

Russia / Yaroslavl Oblast     57°33′21″N   39°49′56″E
temp.,
°C
wind,
m/s
gust,
m/s
humid.,
%
clouds,
%
prec.,
mm/h
press.,
hPa
HPBL,
m
7 march, sun
sun700:00−14ssw47920 0.0 1010102
03:00−14s5109118 0.0 1006198
06:00−9s81490100 0.0 1001611
09:00−7ssw91493100 0.4 996876
12:00−4ssw91394100 1.2 992956
15:00−3wnw81181100 3.4 990954
18:00−8w2373100 0.0 99127
21:00−10wsw2272100 0.0 99121
8 march, mon
mon800:00−12sw3382100 0.0 99145
03:00−13sw1194100 0.0 99321
06:00−14ssw229586 0.0 99321
09:00−11nne119482 0.1 99565
12:00−8n359182 0.0 997413
15:00−7nnw578691 0.1 1000792
18:00−9nnw5992100 0.2 1003380
21:00−13nnw499496 0.2 1007232
9 march, tue
tue900:00−14nnw489593 0.1 1009238
03:00−18nnw479889 0.1 1011152
06:00−22nnw359873 0.0 101380
09:00−21nnw469669 0.0 1015235
12:00−18nnw359168 0.0 1016398
15:00−16nnw468984 0.0 1018589
18:00−20nw4796100 0.0 1018179
21:00−23nnw359997 0.1 102179
10 march, wed
wed1000:00−25n349736 0.0 102350
03:00−27nnw339718 0.0 102427
06:00−27nnw239722 0.0 102527
09:00−24nnw239411 0.0 1026137
12:00−18nnw238424 0.0 1027378
15:00−15wnw347929 0.0 1026559
18:00−18wnw34910 0.0 102633
21:00−21wnw34950 0.0 102760
11 march, thu
thu1100:00−22wnw349152 0.0 102643
03:00−22wnw338834 0.0 102731
06:00−23w238514 0.0 102720
09:00−18wsw238213 0.0 1027104
12:00−12sw33750 0.0 1026280
15:00−10s36790 0.0 1024365
18:00−13sse48860 0.0 1023171
21:00−13s6129328 0.0 1022323